TimeEDT,TemperatureF,Dew PointF,Humidity,Sea Level PressureIn,VisibilityMPH,Wind Direction,Wind SpeedMPH,Gust SpeedMPH,PrecipitationIn,Events,Conditions,WindDirDegrees,DateUTC
12:15 AM,69.8,69.8,100,29.77,10.0,WSW,6.9,16.1,N/A,,Overcast,240,2013-09-22 04:15:00
12:35 AM,69.8,69.8,100,29.77,10.0,WSW,9.2,-,N/A,,Overcast,250,2013-09-22 04:35:00
12:55 AM,69.8,69.8,100,29.77,10.0,West,9.2,-,N/A,,Overcast,280,2013-09-22 04:55:00
1:15 AM,69.8,69.8,100,29.78,7.0,West,8.1,-,N/A,,Light Drizzle,270,2013-09-22 05:15:00
1:35 AM,69.8,69.8,100,29.78,10.0,WNW,6.9,-,N/A,,Mostly Cloudy,300,2013-09-22 05:35:00
1:55 AM,69.8,69.8,100,29.78,10.0,WNW,4.6,-,N/A,,Scattered Clouds,300,2013-09-22 05:55:00
2:15 AM,68.0,68.0,100,29.78,10.0,WNW,6.9,-,N/A,,Clear,300,2013-09-22 06:15:00
2:35 AM,68.0,68.0,100,29.78,10.0,NW,3.5,-,N/A,,Scattered Clouds,310,2013-09-22 06:35:00
2:55 AM,68.0,68.0,100,29.78,10.0,WNW,3.5,-,N/A,,Clear,300,2013-09-22 06:55:00
3:15 AM,66.2,66.2,100,29.78,10.0,NW,3.5,-,N/A,,Clear,320,2013-09-22 07:15:00
3:35 AM,66.2,66.2,100,29.78,10.0,Calm,Calm,-,N/A,,Clear,0,2013-09-22 07:35:00
3:55 AM,66.2,66.2,100,29.78,10.0,NNW,5.8,-,N/A,,Clear,330,2013-09-22 07:55:00
4:15 AM,64.4,64.4,100,29.78,10.0,NNW,4.6,-,N/A,,Clear,330,2013-09-22 08:15:00
4:35 AM,64.4,64.4,100,29.78,10.0,NNW,4.6,-,N/A,,Clear,340,2013-09-22 08:35:00
4:55 AM,64.4,64.4,100,29.78,10.0,North,5.8,-,N/A,,Clear,360,2013-09-22 08:55:00
5:15 AM,64.4,64.4,100,29.78,10.0,Calm,Calm,-,N/A,,Clear,0,2013-09-22 09:15:00
5:35 AM,64.4,64.4,100,29.79,10.0,NNE,4.6,-,N/A,,Clear,20,2013-09-22 09:35:00
5:55 AM,64.4,64.4,100,29.80,10.0,Calm,Calm,-,N/A,,Clear,0,2013-09-22 09:55:00
6:15 AM,62.6,62.6,100,29.80,10.0,NNW,3.5,-,N/A,,Clear,340,2013-09-22 10:15:00
6:35 AM,62.6,62.6,100,29.80,10.0,North,4.6,-,N/A,,Clear,360,2013-09-22 10:35:00
6:55 AM,62.6,62.6,100,29.81,10.0,North,3.5,-,N/A,,Clear,10,2013-09-22 10:55:00
7:15 AM,62.6,62.6,100,29.81,10.0,NNE,4.6,-,N/A,,Clear,20,2013-09-22 11:15:00
7:35 AM,64.4,62.6,94,29.82,10.0,NNE,6.9,-,N/A,,Clear,20,2013-09-22 11:35:00
7:55 AM,64.4,60.8,88,29.82,10.0,NNE,8.1,-,N/A,,Clear,20,2013-09-22 11:55:00
8:15 AM,64.4,60.8,88,29.83,10.0,NNE,10.4,-,N/A,,Clear,20,2013-09-22 12:15:00
8:35 AM,64.4,60.8,88,29.83,10.0,NNE,9.2,-,N/A,,Clear,20,2013-09-22 12:35:00
8:55 AM,64.4,59.0,83,29.84,10.0,NNE,9.2,-,N/A,,Clear,20,2013-09-22 12:55:00
9:15 AM,64.4,59.0,83,29.84,10.0,NNE,11.5,-,N/A,,Clear,20,2013-09-22 13:15:00
9:35 AM,68.0,59.0,73,29.84,10.0,NNE,15.0,18.4,N/A,,Clear,20,2013-09-22 13:35:00
9:55 AM,68.0,55.4,64,29.85,10.0,NNE,10.4,-,N/A,,Clear,30,2013-09-22 13:55:00
10:15 AM,69.8,55.4,60,29.85,10.0,NNE,12.7,18.4,N/A,,Clear,30,2013-09-22 14:15:00
10:35 AM,69.8,55.4,60,29.85,10.0,NNE,13.8,19.6,N/A,,Clear,20,2013-09-22 14:35:00
10:55 AM,71.6,55.4,57,29.85,10.0,NNE,10.4,-,N/A,,Clear,20,2013-09-22 14:55:00
11:15 AM,73.4,55.4,53,29.85,10.0,NNE,11.5,17.3,N/A,,Clear,30,2013-09-22 15:15:00
11:35 AM,75.2,53.6,47,29.86,10.0,NNE,15.0,-,N/A,,Clear,30,2013-09-22 15:35:00
11:55 AM,77.0,53.6,44,29.85,10.0,NNE,12.7,-,N/A,,Clear,30,2013-09-22 15:55:00
12:15 PM,77.0,53.6,44,29.85,10.0,NE,12.7,19.6,N/A,,Clear,50,2013-09-22 16:15:00
12:35 PM,78.8,51.8,39,29.86,10.0,NE,12.7,18.4,N/A,,Clear,40,2013-09-22 16:35:00
12:55 PM,78.8,53.6,42,29.85,10.0,NE,13.8,18.4,N/A,,Clear,50,2013-09-22 16:55:00
1:15 PM,78.8,51.8,39,29.85,10.0,NNE,6.9,-,N/A,,Clear,30,2013-09-22 17:15:00
1:35 PM,78.8,53.6,42,29.85,10.0,NE,9.2,-,N/A,,Clear,40,2013-09-22 17:35:00
1:55 PM,78.8,51.8,39,29.85,10.0,North,11.5,17.3,N/A,,Clear,360,2013-09-22 17:55:00
2:15 PM,80.6,51.8,37,29.84,10.0,North,11.5,-,N/A,,Clear,10,2013-09-22 18:15:00
2:35 PM,80.6,51.8,37,29.83,10.0,NNE,10.4,16.1,N/A,,Clear,20,2013-09-22 18:35:00
2:55 PM,80.6,53.6,39,29.83,10.0,NNE,10.4,16.1,N/A,,Clear,20,2013-09-22 18:55:00
3:15 PM,80.6,51.8,37,29.83,10.0,North,6.9,-,N/A,,Clear,350,2013-09-22 19:15:00
3:35 PM,80.6,51.8,37,29.83,10.0,NE,5.8,10.4,N/A,,Clear,50,2013-09-22 19:35:00
3:55 PM,80.6,51.8,37,29.83,10.0,NE,8.1,-,N/A,,Clear,40,2013-09-22 19:55:00
4:15 PM,82.4,51.8,35,29.82,10.0,North,9.2,-,N/A,,Clear,360,2013-09-22 20:15:00
4:35 PM,82.4,53.6,37,29.82,10.0,North,6.9,-,N/A,,Clear,350,2013-09-22 20:35:00
4:55 PM,80.6,51.8,37,29.83,10.0,NW,9.2,-,N/A,,Clear,320,2013-09-22 20:55:00
5:15 PM,80.6,50.0,34,29.83,10.0,North,5.8,-,N/A,,Clear,350,2013-09-22 21:15:00
5:35 PM,80.6,51.8,37,29.83,10.0,NNE,10.4,-,N/A,,Clear,20,2013-09-22 21:35:00
5:55 PM,80.6,51.8,37,29.83,10.0,North,6.9,-,N/A,,Clear,360,2013-09-22 21:55:00
6:15 PM,80.6,51.8,37,29.84,10.0,North,9.2,-,N/A,,Clear,360,2013-09-22 22:15:00
6:35 PM,78.8,51.8,39,29.85,10.0,North,5.8,-,N/A,,Clear,360,2013-09-22 22:35:00
6:55 PM,78.8,51.8,39,29.85,10.0,North,6.9,-,N/A,,Clear,360,2013-09-22 22:55:00
7:15 PM,77.0,51.8,41,29.85,10.0,North,5.8,-,N/A,,Clear,360,2013-09-22 23:15:00
7:35 PM,73.4,51.8,47,29.85,10.0,North,3.5,-,N/A,,Clear,360,2013-09-22 23:35:00
7:55 PM,73.4,51.8,47,29.86,10.0,Calm,Calm,-,N/A,,Clear,0,2013-09-22 23:55:00
8:15 PM,69.8,53.6,56,29.86,10.0,Calm,Calm,-,N/A,,Clear,0,2013-09-23 00:15:00
8:35 PM,69.8,55.4,60,29.87,10.0,Calm,Calm,-,N/A,,Clear,0,2013-09-23 00:35:00
8:55 PM,64.4,55.4,73,29.88,10.0,Calm,Calm,-,N/A,,Clear,0,2013-09-23 00:55:00
9:15 PM,64.4,55.4,73,29.90,10.0,Calm,Calm,-,N/A,,Clear,0,2013-09-23 01:15:00
9:35 PM,68.0,53.6,60,29.91,10.0,Calm,Calm,-,N/A,,Clear,0,2013-09-23 01:35:00
9:55 PM,64.4,55.4,73,29.91,10.0,Calm,Calm,-,N/A,,Clear,0,2013-09-23 01:55:00
10:15 PM,66.2,53.6,64,29.91,10.0,Calm,Calm,-,N/A,,Clear,0,2013-09-23 02:15:00
10:35 PM,64.4,53.6,68,29.91,10.0,NNE,3.5,-,N/A,,Clear,20,2013-09-23 02:35:00
10:55 PM,64.4,53.6,68,29.92,10.0,ENE,3.5,-,N/A,,Clear,70,2013-09-23 02:55:00
11:15 PM,62.6,53.6,72,29.93,10.0,Calm,Calm,-,N/A,,Clear,0,2013-09-23 03:15:00
11:35 PM,62.6,53.6,72,29.93,10.0,Calm,Calm,-,N/A,,Clear,0,2013-09-23 03:35:00
11:55 PM,60.8,53.6,77,29.93,10.0,Calm,Calm,-,N/A,,Clear,0,2013-09-23 03:55:00